User: anonymous   Login
Location: Unspecified
(0.0000°N, 0.0000°E)
Time: 03:19:20
(UTC+00:00)
Language:

STARLINK-4684 - Orbit

View from above orbital plane
View from above orbital plane
View from above satellite
View from above satellite

Ground track
Ground track

The orbit is defined by the following mean orbital elements,

1 53595U          26145.05774628 +.00000000 +00000-0 +49860-4 0 00008
2 53595  53.2153 261.3011 0001299  91.8907 268.2234 15.08840616    03
Epoch (UTC): 25 May 2026 01:23:09
Eccentricity: 0.0001299
inclination: 53.2153°
perigee height: 539 km
apogee height: 541 km
right ascension of ascending node: 261.3011°
argument of perigee: 91.8907°
revolutions per day: 15.08840616
mean anomaly at epoch: 268.2234°

The dashed part of the orbit path shows where the satellite is in the earth's shadow,  

DLR